Location: Clinton NY
(43.0598°N, 75.3602°W)
Time: 23:22:05
(UTC-04:00)

Amateur Radio Satellites - All Passes

Search period start: 24 May 2015 22:52
Search period end: 25 May 2015 22:52
Location: Clinton NY, 43.0598°N, 75.3602°W

Satellite Date Start Highest point End Downlink Frequencies (MHz)
Time Altitude Azimuth
Cosmos 2504 24 May 22:52:50 22:59:35 43° 271° (W) 23:06:11 435.465 / 435.565
QB50P2 24 May 22:55:47 22:56:50 11° 87° (E) 22:58:09 145.880/145.840
DANDE 24 May 22:58:07 23:02:33 16° 51° (NE) 23:07:01 436.750
TIGRISAT 24 May 22:59:18 23:02:58 26° 94° (E) 23:06:37 435.000
SPROUT 24 May 23:03:10 23:04:47 12° 62° (ENE) 23:06:36 437.525
POPSAT HIP 1 24 May 23:07:35 23:09:58 15° 90° (E) 23:12:30 437.405
DUCHIFAT 1 24 May 23:11:29 23:14:03 16° 90° (E) 23:16:47 145.980
CUBEBUG 2 24 May 23:14:52 23:17:49 16° 271° (W) 23:20:34 437.445
UNISAT 6 24 May 23:18:14 23:22:27 42° 98° (E) 23:26:34 437.425
ZACube-1 24 May 23:27:28 23:30:30 17° 270° (W) 23:33:20 437.345
UKube-1 24 May 23:33:43 23:37:21 25° 266° (W) 23:40:55 .
TISAT 1 24 May 23:34:53 23:37:51 19° 66° (ENE) 23:40:56 437.305
ESTCUBE 1 24 May 23:34:55 23:39:24 81° 257° (WSW) 23:43:55 437.505/2401.250
50 SAT 24 May 23:37:01 23:40:45 36° 263° (W) 23:44:28 437.505
DX 1 24 May 23:39:04 23:42:27 21° 267° (W) 23:45:44 434.975-435.025
HUMSAT D 24 May 23:41:34 23:44:58 22° 267° (W) 23:48:17 437.325/437.525
VELOX 1 24 May 23:42:24 23:46:34 39° 262° (W) 23:50:44 145.980
BUGSAT 1 24 May 23:45:17 23:48:51 26° 94° (E) 23:52:27 437.445
CUSAT 1 24 May 23:45:46 23:52:40 36° 66° (ENE) 23:58:24 437.405
CUBEBUG 1 24 May 23:47:36 23:51:55 67° 259° (WSW) 23:56:18 437.445
QB50P1 24 May 23:50:39 23:54:45 43° 98° (E) 23:58:51 145.935-145.965
POLYITAN 1 24 May 23:51:13 23:55:22 45° 99° (E) 23:59:27 437.675
ANTELSAT 25 May 00:01:25 00:05:49 65° 286° (WNW) 00:10:05 437.575/2403.000
AISAT 25 May 00:14:24 00:17:36 19° 269° (W) 00:20:40 437.250
NANOSAT C BR1 25 May 00:22:50 00:27:09 83° 284° (WNW) 00:31:24 145.865
GONETS M04 25 May 00:27:56 00:36:30 53° 74° (ENE) 00:45:00
QB50P2 25 May 00:29:01 00:33:18 69° 285° (WNW) 00:37:32 145.880/145.840
TIGRISAT 25 May 00:35:52 00:39:45 30° 291° (WNW) 00:43:29 435.000
SPROUT 25 May 00:36:02 00:40:21 72° 259° (W) 00:44:41 437.525
DANDE 25 May 00:39:35 00:47:48 70° 76° (ENE) 00:54:25 436.750
POPSAT HIP 1 25 May 00:42:01 00:46:12 51° 287° (WNW) 00:50:20 437.405
DUCHIFAT 1 25 May 00:46:03 00:50:12 47° 287° (WNW) 00:54:16 145.980
ITUPSAT 1 25 May 00:51:32 00:55:09 23° 65° (ENE) 00:58:52 437.325
UNISAT 6 25 May 00:55:45 00:58:57 19° 295° (WNW) 01:01:59 437.425
ISS 25 May 00:58:38 01:01:52 67° 143° (SE) 01:05:06 145.825
BEESAT 25 May 01:00:25 01:04:23 28° 67° (ENE) 01:08:25 436.000
SWISSCUBE 25 May 01:08:09 01:12:25 35° 69° (ENE) 01:16:45 437.505
TISAT 1 25 May 01:09:20 01:13:21 41° 262° (W) 01:17:24 437.305
O/OREOS (USA 219) 25 May 01:13:42 01:17:06 21° 54° (NE) 01:20:35 437.305
PCSat 25 May 01:18:14 01:23:10 38° 112° (ESE) 01:28:12 145.827
BUGSAT 1 25 May 01:20:34 01:24:19 29° 291° (WNW) 01:27:59 437.445
QB50P1 25 May 01:27:19 01:30:20 18° 295° (WNW) 01:33:13 145.935-145.965
POLYITAN 1 25 May 01:27:59 01:30:57 18° 295° (WNW) 01:33:47 437.675
CUSAT 1 25 May 01:28:29 01:35:32 43° 271° (W) 01:41:09 437.405
Cosmos 2499 25 May 01:35:58 01:41:25 24° 65° (ENE) 01:47:03 435.465 / 435.565
KKS-1 25 May 01:44:58 01:47:17 14° 63° (ENE) 01:49:48 437.445
Oscar 19 25 May 02:01:11 02:05:55 37° 96° (E) 02:10:40 437.125/150
BEESAT 2 25 May 02:01:20 02:02:03 10° 32° (NNE) 02:02:56 435.950
ITAMSAT 1 25 May 02:11:36 02:13:58 13° 87° (E) 02:16:38 435.822/435.867
DANDE 25 May 02:23:59 02:30:11 24° 278° (W) 02:35:18 436.750
GONETS M04 25 May 02:25:18 02:33:05 35° 274° (W) 02:40:37
VERMONT LUNAR 25 May 02:28:09 02:29:20 12° 151° (SSE) 02:30:37 437.305
ITUPSAT 1 25 May 02:28:17 02:32:49 42° 262° (W) 02:37:20 437.325
Gurwin Techsat 1B 25 May 02:34:13 02:38:12 22° 91° (E) 02:42:18 435.225
ISS 25 May 02:35:42 02:38:31 26° 343° (NNW) 02:41:19 145.825
BEESAT 25 May 02:37:49 02:42:08 34° 264° (W) 02:46:26 436.000
SWISSCUBE 25 May 02:46:21 02:50:22 26° 266° (W) 02:54:18 437.505
BEESAT 3 25 May 02:51:42 02:55:15 28° 46° (NE) 02:58:46 437.485
O/OREOS (USA 219) 25 May 02:52:31 02:56:45 42° 253° (WSW) 03:00:57 437.305
STARS 25 May 02:52:53 02:57:04 42° 71° (ENE) 03:01:18 437.465
PCSat 25 May 03:01:43 03:06:40 34° 311° (NW) 03:11:36 145.827
AIST 2 25 May 03:12:43 03:15:09 15° 37° (NE) 03:17:41 435.215
KKS-1 25 May 03:19:00 03:23:27 64° 259° (WSW) 03:27:57 437.445
Cosmos 2499 25 May 03:28:14 03:35:12 62° 266° (W) 03:42:11 435.465 / 435.565
JAS-2 25 May 03:35:23 03:37:34 13° 87° (E) 03:40:04 435.910
BEESAT 2 25 May 03:36:59 03:41:04 60° 53° (NE) 03:45:05 435.950
Oscar 19 25 May 03:40:44 03:45:11 29° 294° (WNW) 03:49:32 437.125/150
SO-50 25 May 03:48:20 03:52:42 42° 117° (ESE) 03:57:17 436.795
ITAMSAT 1 25 May 03:48:57 03:54:11 77° 287° (WNW) 03:59:24 435.822/435.867
HORYU 2 25 May 04:02:07 04:05:41 24° 94° (E) 04:09:17 437.375
VERMONT LUNAR 25 May 04:03:04 04:06:02 36° 165° (SSE) 04:09:02 437.305
PHONESAT 2.4 25 May 04:04:51 04:07:18 18° 154° (SSE) 04:09:47 2401.200-2431.200
ISS 25 May 04:13:21 04:15:42 18° 3° (N) 04:18:03 145.825
Gurwin Techsat 1B 25 May 04:13:22 04:18:30 50° 289° (WNW) 04:23:37 435.225
AO-7 25 May 04:20:24 04:27:50 35° 96° (E) 04:35:22 29.400- 29.500
BEESAT 3 25 May 04:29:35 04:33:15 31° 244° (WSW) 04:36:48 437.485
STARS 25 May 04:30:30 04:33:45 19° 268° (W) 04:36:52 437.465
MOZHAYETS 4 25 May 04:31:24 04:35:53 58° 73° (ENE) 04:40:24
AIST 2 25 May 04:50:06 04:54:21 84° 238° (WSW) 04:58:31 435.215
BEESAT 2 25 May 05:16:33 05:18:43 14° 250° (WSW) 05:20:41 435.950
JAS-2 25 May 05:18:17 05:23:27 72° 287° (WNW) 05:28:42 435.910
SO-50 25 May 05:29:13 05:33:24 29° 317° (NW) 05:37:40 436.795
ITAMSAT 1 25 May 05:31:11 05:32:55 11° 302° (WNW) 05:34:23 435.822/435.867
HORYU 2 25 May 05:38:23 05:42:24 33° 291° (WNW) 05:46:21 437.375
VERMONT LUNAR 25 May 05:39:53 05:43:01 54° 182° (S) 05:46:09 437.305
PHONESAT 2.4 25 May 05:41:39 05:45:00 46° 169° (S) 05:48:20 2401.200-2431.200
M-CUBED/EXP-1 PRIME 25 May 05:42:37 05:43:00 10° 58° (ENE) 05:43:36 437.505
ISS 25 May 05:49:46 05:52:48 33° 22° (NNE) 05:55:50 145.825
AUBIESAT-1 25 May 05:52:08 05:53:17 11° 59° (ENE) 05:54:36 437.475
CUBESAT XI-V 25 May 06:04:01 06:08:21 44° 72° (ENE) 06:12:46 437.345
Cubesat XI-IV 25 May 06:06:31 06:09:17 15° 88° (E) 06:12:19 437.490
MOZHAYETS 4 25 May 06:10:56 06:13:34 15° 271° (W) 06:16:00
Cosmos 2491 25 May 06:12:11 06:20:14 38° 69° (ENE) 06:28:20 435.465 / 435.565
AO-7 25 May 06:12:53 06:21:00 56° 295° (WNW) 06:29:04 29.400- 29.500
STRAND 1 25 May 06:29:18 06:33:57 38° 69° (ENE) 06:38:41 437.568
PRISM 25 May 06:47:33 06:51:34 60° 74° (ENE) 06:55:37 437.425
YUBILEINY 25 May 07:06:27 07:13:49 33° 85° (E) 07:21:22 435.215
M-CUBED/EXP-1 PRIME 25 May 07:13:07 07:17:27 86° 250° (WSW) 07:21:26 437.505
VERMONT LUNAR 25 May 07:17:06 07:19:57 29° 198° (SSW) 07:22:48 437.305
PHONESAT 2.4 25 May 07:19:32 07:22:55 53° 186° (S) 07:26:18 2401.200-2431.200
AUBIESAT-1 25 May 07:23:26 07:27:41 76° 252° (WSW) 07:31:37 437.475
CUTE-I 25 May 07:24:43 07:30:06 74° 103° (ESE) 07:35:28 437.470
ISS 25 May 07:26:10 07:29:15 39° 220° (SW) 07:32:19 145.825
RS-15 25 May 07:40:24 07:45:13 15° 98° (E) 07:50:57 29.354- 29.394
CUBESAT XI-V 25 May 07:42:43 07:46:04 19° 269° (W) 07:49:18 437.345
Cubesat XI-IV 25 May 07:44:41 07:50:04 75° 286° (WNW) 07:55:25 437.490
AO-7 25 May 08:08:04 08:12:09 14° 316° (NW) 08:15:51 29.400- 29.500
Cosmos 2491 25 May 08:08:57 08:17:24 51° 270° (W) 08:25:42 435.465 / 435.565
STRAND 1 25 May 08:08:57 08:13:16 27° 266° (W) 08:17:33 437.568
PRISM 25 May 08:26:03 08:27:30 11° 271° (W) 08:28:44 437.425
DOVE 4 25 May 08:29:18 08:31:43 14° 85° (E) 08:34:21 437.250
AIST 1 25 May 08:30:40 08:35:04 82° 265° (W) 08:39:27
BRITE-PL 25 May 08:40:57 08:46:23 44° 96° (E) 08:51:38 437.365/2234.400
SEEDS 25 May 08:46:22 08:48:07 13° 88° (E) 08:50:05 437.485
GOMX 1 25 May 08:54:24 08:59:25 37° 95° (E) 09:04:14 467.674
PHONESAT 2.4 25 May 08:57:49 09:00:42 24° 202° (SSW) 09:03:34 2401.200-2431.200
HO-68 25 May 09:01:08 09:07:27 34° 95° (E) 09:13:50 435.675
YUBILEINY 25 May 09:01:40 09:10:17 57° 284° (WNW) 09:18:51 435.215
COMPASS 1 25 May 09:02:25 09:04:50 15° 90° (E) 09:07:24 437.405
CUTE-I 25 May 09:06:14 09:09:39 17° 299° (WNW) 09:12:51 437.470
AAUSAT CUBESAT 2 25 May 09:15:59 09:18:51 19° 91° (E) 09:21:51 437.432
ANTELSAT 25 May 09:26:36 09:29:05 15° 63° (ENE) 09:31:45 437.575/2403.000
Cubesat XI-IV 25 May 09:27:35 09:29:22 11° 303° (WNW) 09:30:52 437.490
CUBEBUG 2 25 May 09:28:59 09:30:15 11° 86° (E) 09:31:47 437.445
Cosmos 2504 25 May 09:38:53 09:45:47 31° 86° (E) 09:52:31 435.465 / 435.565
RS-15 25 May 09:44:57 09:55:42 70° 118° (ESE) 10:06:47 29.354- 29.394
CANX-2 25 May 09:50:27 09:54:41 90° 332° (NNW) 09:58:54 2200.000
QB50P2 25 May 09:50:29 09:51:26 11° 62° (ENE) 09:52:37 145.880/145.840
CUTE 1.7 + AOD 2 25 May 09:54:19 09:58:34 90° 65° (ENE) 10:02:46 437.475
Oscar 11 25 May 09:55:00 09:58:28 24° 93° (E) 10:01:59 145.826/435.025
DELFI C3 25 May 09:57:02 09:59:40 17° 91° (E) 10:02:25 145.870
CINEMA 3 25 May 09:58:03 10:02:42 48° 98° (E) 10:07:08 145.822/145.860
TIGRISAT 25 May 09:58:41 10:02:40 28° 68° (ENE) 10:06:41 435.000
POPSAT HIP 1 25 May 10:01:57 10:04:07 14° 64° (ENE) 10:06:28 437.405
PCSat 25 May 10:04:50 10:09:56 40° 51° (NE) 10:15:01 145.827
DOVE 4 25 May 10:04:59 10:10:12 74° 285° (WNW) 10:15:07 437.250
DUCHIFAT 1 25 May 10:05:24 10:07:43 15° 64° (ENE) 10:10:13 145.980
UNISAT 6 25 May 10:17:40 10:22:08 45° 71° (ENE) 10:26:35 437.425
UWE-3 25 May 10:18:33 10:22:29 31° 95° (E) 10:26:20 435.000/436.395/437.385
BRITE-PL 25 May 10:19:49 10:24:40 29° 294° (WNW) 10:29:17 437.365/2234.400
SEEDS 25 May 10:20:15 10:24:21 56° 286° (WNW) 10:28:26 437.485
GOMX 1 25 May 10:32:40 10:37:25 31° 293° (WNW) 10:41:54 467.674
FUNcube-1 25 May 10:33:58 10:37:57 34° 96° (E) 10:41:51 145.935
BUGSAT 1 25 May 10:36:40 10:39:45 21° 67° (ENE) 10:42:59 437.445
COMPASS 1 25 May 10:36:49 10:40:49 45° 287° (WNW) 10:44:46 437.405
SO-50 25 May 10:39:47 10:41:46 12° 29° (NNE) 10:43:52 436.795
QB50P1 25 May 10:44:13 10:48:09 37° 71° (ENE) 10:52:08 145.935-145.965
POLYITAN 1 25 May 10:45:02 10:49:01 39° 71° (ENE) 10:53:04 437.675
HO-68 25 May 10:48:34 10:55:26 50° 294° (WNW) 11:02:12 435.675
AAUSAT CUBESAT 2 25 May 10:50:49 10:54:39 37° 289° (WNW) 10:58:26 437.432
ANTELSAT 25 May 11:00:42 11:05:23 68° 258° (WSW) 11:10:03 437.575/2403.000
CUBEBUG 2 25 May 11:03:06 11:07:36 70° 285° (WNW) 11:11:56 437.445
YUBILEINY 25 May 11:06:42 11:09:41 11° 310° (NW) 11:12:01 435.215
50 SAT 25 May 11:12:47 11:15:53 23° 94° (E) 11:19:00 437.505
ZACube-1 25 May 11:13:24 11:17:48 84° 284° (WNW) 11:22:03 437.345
NANOSAT C BR1 25 May 11:15:55 11:20:12 82° 74° (ENE) 11:24:31 145.865
UKube-1 25 May 11:19:22 11:23:36 48° 99° (E) 11:27:49 .
QB50P2 25 May 11:22:27 11:26:45 82° 257° (WSW) 11:31:05 145.880/145.840
HUMSAT D 25 May 11:23:39 11:27:47 57° 100° (E) 11:31:51 437.325/437.525
DX 1 25 May 11:25:07 11:29:29 60° 101° (E) 11:33:49 434.975-435.025
ESTCUBE 1 25 May 11:27:27 11:30:43 20° 92° (E) 11:34:07 437.505/2401.250
Cosmos 2504 25 May 11:30:39 11:38:53 57° 283° (WNW) 11:46:34 435.465 / 435.565
Oscar 11 25 May 11:30:52 11:34:42 31° 290° (WNW) 11:38:29 145.826/435.025
DELFI C3 25 May 11:31:14 11:34:58 38° 289° (WNW) 11:38:41 145.870
VELOX 1 25 May 11:31:46 11:35:54 35° 97° (E) 11:40:01 145.980
TIGRISAT 25 May 11:35:07 11:39:20 32° 265° (W) 11:43:30 435.000
POPSAT HIP 1 25 May 11:35:19 11:39:33 60° 259° (W) 11:43:50 437.405
CINEMA 3 25 May 11:36:02 11:39:32 20° 296° (WNW) 11:42:48 145.822/145.860
CUBEBUG 1 25 May 11:36:10 11:39:31 21° 92° (E) 11:42:57 437.445
DUCHIFAT 1 25 May 11:38:55 11:43:07 56° 260° (W) 11:47:22 145.980
DOVE 4 25 May 11:45:52 11:47:02 11° 302° (WNW) 11:47:55 437.250
PCSat 25 May 11:48:27 11:53:16 32° 249° (WSW) 11:58:00 145.827
UWE-3 25 May 11:55:14 11:58:54 25° 293° (WNW) 12:02:26 435.000/436.395/437.385
UNISAT 6 25 May 11:55:37 11:59:09 20° 269° (W) 12:02:31 437.425
RS-15 25 May 11:58:44 12:08:59 42° 324° (NW) 12:19:29 29.354- 29.394
AISAT 25 May 12:02:26 12:06:59 79° 104° (ESE) 12:11:27 437.250
DANDE 25 May 12:10:23 12:14:00 15° 77° (ENE) 12:18:22 436.750
FUNcube-1 25 May 12:10:40 12:14:07 22° 293° (WNW) 12:17:22 145.935
BUGSAT 1 25 May 12:11:14 12:15:02 35° 263° (W) 12:18:54 437.445
SO-50 25 May 12:18:40 12:23:31 51° 50° (NE) 12:28:19 436.795
QB50P1 25 May 12:20:56 12:24:10 20° 268° (W) 12:27:19 145.935-145.965
POLYITAN 1 25 May 12:21:54 12:25:06 20° 268° (W) 12:28:13 437.675
SPROUT 25 May 12:22:42 12:25:42 19° 91° (E) 12:28:49 437.525
HO-68 25 May 12:40:21 12:41:39 10° 313° (NW) 12:42:32 435.675
50 SAT 25 May 12:47:17 12:50:36 26° 291° (WNW) 12:53:50 437.505
CUSAT 1 25 May 12:50:55 12:57:28 39° 88° (E) 13:04:59 437.405
TISAT 1 25 May 12:53:00 12:56:41 28° 95° (E) 13:00:24 437.305
UKube-1 25 May 12:56:28 12:59:24 17° 296° (WNW) 13:02:13 .
HUMSAT D 25 May 13:00:54 13:03:06 14° 296° (WNW) 13:05:08 437.325/437.525
DX 1 25 May 13:02:46 13:05:18 15° 297° (WNW) 13:07:39 434.975-435.025
ESTCUBE 1 25 May 13:03:32 13:07:49 42° 289° (WNW) 13:12:04 437.505/2401.250
VELOX 1 25 May 13:08:40 13:12:18 24° 293° (WNW) 13:15:48 145.980
CUBEBUG 1 25 May 13:11:53 13:16:02 38° 289° (WNW) 13:20:08 437.445
Oscar 19 25 May 13:18:44 13:23:49 59° 73° (ENE) 13:28:57 437.125/150
GONETS M04 25 May 13:29:39 13:38:13 59° 92° (E) 13:46:52
ITAMSAT 1 25 May 13:29:55 13:33:56 24° 64° (ENE) 13:38:05 435.822/435.867
Cosmos 2504 25 May 13:32:38 13:34:22 10° 307° (NW) 13:35:28 435.465 / 435.565
AO-7 25 May 13:33:52 13:37:04 13° 43° (NE) 13:40:41 29.400- 29.500
AISAT 25 May 13:41:09 13:42:59 12° 299° (WNW) 13:44:37 437.250
DANDE 25 May 13:48:48 13:55:44 75° 97° (E) 14:04:09 436.750
Gurwin Techsat 1B 25 May 13:56:00 14:00:49 38° 68° (ENE) 14:05:43 435.225
SPROUT 25 May 13:57:54 14:02:01 41° 288° (WNW) 14:06:04 437.525
SO-50 25 May 13:59:53 14:03:47 23° 248° (WSW) 14:07:31 436.795
Cosmos 2499 25 May 14:15:03 14:20:18 20° 83° (E) 14:25:40 435.465 / 435.565
RS-15 25 May 14:16:52 14:25:29 24° 357° (N) 14:34:22 29.354- 29.394
ITUPSAT 1 25 May 14:27:38 14:32:13 45° 98° (E) 14:36:49 437.325
TISAT 1 25 May 14:28:46 14:32:25 27° 292° (WNW) 14:35:59 437.305
CUSAT 1 25 May 14:32:57 14:40:02 49° 289° (WNW) 14:48:00 437.405
BEESAT 25 May 14:36:28 14:41:10 56° 100° (E) 14:45:52 436.000
SWISSCUBE 25 May 14:44:36 14:49:24 74° 102° (ESE) 14:54:11 437.505
Oscar 19 25 May 15:00:03 15:03:38 18° 270° (W) 15:07:03 437.125/150
HORYU 2 25 May 15:01:20 15:05:02 26° 67° (ENE) 15:08:47 437.375
ITAMSAT 1 25 May 15:08:14 15:13:11 46° 261° (W) 15:18:11 435.822/435.867
KKS-1 25 May 15:09:48 15:13:19 23° 93° (E) 15:16:54 437.445
AO-7 25 May 15:20:14 15:28:08 52° 64° (ENE) 15:36:08 29.400- 29.500
O/OREOS (USA 219) 25 May 15:27:37 15:30:43 19° 102° (ESE) 15:33:57 437.305
GONETS M04 25 May 15:27:48 15:35:38 33° 293° (WNW) 15:43:19
JAS-2 25 May 15:30:17 15:36:48 55° 72° (ENE) 15:42:38 435.910
DANDE 25 May 15:33:56 15:40:04 26° 300° (WNW) 15:46:43 436.750
Gurwin Techsat 1B 25 May 15:36:16 15:40:54 29° 266° (W) 15:45:27 435.225
Cosmos 2499 25 May 16:04:33 16:12:47 80° 279° (W) 16:20:24 435.465 / 435.565
ITUPSAT 1 25 May 16:06:12 16:09:52 22° 295° (WNW) 16:13:25 437.325
BEESAT 25 May 16:15:23 16:18:37 18° 297° (WNW) 16:21:41 436.000
STARS 25 May 16:17:42 16:22:09 75° 103° (ESE) 16:26:33 437.465
CUSAT 1 25 May 16:22:46 16:25:13 11° 313° (NW) 16:27:11 437.405
SWISSCUBE 25 May 16:24:11 16:26:43 14° 299° (WNW) 16:29:04 437.505
MOZHAYETS 4 25 May 16:27:23 16:29:19 13° 88° (E) 16:31:29
RS-15 25 May 16:32:13 16:42:25 36° 31° (NNE) 16:53:11 29.354- 29.394
HORYU 2 25 May 16:37:32 16:41:34 32° 264° (W) 16:45:36 437.375
KKS-1 25 May 16:45:56 16:50:04 36° 290° (WNW) 16:54:08 437.445
O/OREOS (USA 219) 25 May 17:05:31 17:09:51 44° 298° (WNW) 17:14:11 437.305
CUTE-I 25 May 17:09:50 17:13:23 19° 62° (ENE) 17:17:06 437.470
AO-7 25 May 17:13:37 17:21:13 38° 263° (W) 17:28:44 29.400- 29.500
YUBILEINY 25 May 17:15:29 17:20:26 17° 56° (NE) 17:25:52 435.215
JAS-2 25 May 17:16:38 17:22:10 26° 267° (W) 17:27:05 435.910
Cubesat XI-IV 25 May 17:28:56 17:33:18 27° 65° (ENE) 17:37:48 437.490
STARS 25 May 17:56:08 17:58:04 12° 298° (WNW) 17:59:48 437.465
MOZHAYETS 4 25 May 18:02:32 18:07:05 66° 285° (WNW) 18:11:37
CUBESAT XI-V 25 May 18:02:33 18:03:12 10° 86° (E) 18:04:11 437.345
Cosmos 2499 25 May 18:02:34 18:07:17 16° 301° (WNW) 18:11:26 435.465 / 435.565
BEESAT 3 25 May 18:22:51 18:26:32 34° 117° (ESE) 18:30:18 437.485
STRAND 1 25 May 18:41:04 18:42:31 11° 86° (E) 18:44:18 437.568
RS-15 25 May 18:44:51 18:56:32 89° 234° (SW) 19:08:41 29.354- 29.394
CUTE-I 25 May 18:47:46 18:53:01 63° 258° (WSW) 18:58:19 437.470
AIST 2 25 May 18:50:13 18:52:52 17° 111° (ESE) 18:55:40 435.215
Cubesat XI-IV 25 May 19:08:14 19:13:15 41° 262° (W) 19:18:16 437.490
BEESAT 2 25 May 19:08:57 19:13:04 86° 123° (ESE) 19:17:14 435.950
YUBILEINY 25 May 19:10:23 19:19:07 77° 80° (E) 19:27:50 435.215
Cosmos 2491 25 May 19:14:38 19:22:36 42° 87° (E) 19:30:44 435.465 / 435.565
HO-68 25 May 19:31:14 19:37:08 29° 60° (ENE) 19:43:10 435.675
DOVE 4 25 May 19:35:18 19:38:32 17° 62° (ENE) 19:42:00 437.250
CUBESAT XI-V 25 May 19:36:38 19:41:22 83° 284° (WNW) 19:46:04 437.345
SEEDS 25 May 19:40:28 19:41:45 11° 63° (ENE) 19:43:14 437.485
BRITE-PL 25 May 19:52:14 19:57:07 51° 72° (ENE) 20:02:26 437.365/2234.400
COMPASS 1 25 May 19:55:30 19:57:26 13° 64° (ENE) 19:59:34 437.405
BEESAT 3 25 May 20:01:05 20:04:35 26° 315° (NW) 20:08:06 437.485
GOMX 1 25 May 20:02:49 20:07:38 43° 70° (ENE) 20:12:45 467.674
PRISM 25 May 20:04:03 20:08:13 89° 103° (ESE) 20:12:23 437.425
AAUSAT CUBESAT 2 25 May 20:08:25 20:10:52 16° 65° (ENE) 20:13:27 437.432
STRAND 1 25 May 20:17:21 20:22:31 87° 289° (WNW) 20:27:42 437.568
AIST 2 25 May 20:26:54 20:31:05 53° 308° (NW) 20:35:18 435.215
CUBEBUG 2 25 May 20:27:51 20:30:05 14° 62° (ENE) 20:32:32 437.445
M-CUBED/EXP-1 PRIME 25 May 20:28:23 20:31:40 56° 106° (ESE) 20:34:55 437.505
ZACube-1 25 May 20:37:58 20:38:31 10° 61° (ENE) 20:39:20 437.345
AUBIESAT-1 25 May 20:38:00 20:41:19 65° 106° (ESE) 20:44:36 437.475
CANX-2 25 May 20:43:59 20:48:14 72° 76° (ENE) 20:52:30 2200.000
DELFI C3 25 May 20:46:25 20:48:17 13° 65° (ENE) 20:50:20 145.870
CUTE 1.7 + AOD 2 25 May 20:47:47 20:52:02 72° 76° (ENE) 20:56:17 437.475
BEESAT 2 25 May 20:49:24 20:51:46 14° 323° (NW) 20:54:03 435.950
Oscar 11 25 May 20:51:00 20:54:18 22° 67° (ENE) 20:57:41 145.826/435.025
RS-15 25 May 20:58:51 21:07:46 25° 257° (WSW) 21:16:20 29.354- 29.394
CINEMA 3 25 May 20:59:54 21:04:42 51° 72° (ENE) 21:09:37 145.822/145.860
AIST 1 25 May 21:00:59 21:05:07 55° 95° (E) 21:09:19
YUBILEINY 25 May 21:08:38 21:15:06 23° 279° (W) 21:21:13 435.215
DOVE 4 25 May 21:10:38 21:15:43 69° 259° (W) 21:21:01 437.250
Cosmos 2491 25 May 21:11:03 21:19:27 46° 288° (WNW) 21:27:50 435.465 / 435.565
SEEDS 25 May 21:12:48 21:17:02 73° 258° (WSW) 21:21:16 437.485
UWE-3 25 May 21:16:16 21:20:21 31° 69° (ENE) 21:24:29 435.000/436.395/437.385
CUBESAT XI-V 25 May 21:17:21 21:18:07 10° 300° (WNW) 21:18:38 437.345
HO-68 25 May 21:17:23 21:24:29 60° 258° (WSW) 21:31:35 435.675
Cosmos 2504 25 May 21:21:58 21:29:03 54° 76° (ENE) 21:36:05 435.465 / 435.565
COMPASS 1 25 May 21:28:33 21:32:41 60° 260° (W) 21:36:51 437.405
FUNcube-1 25 May 21:30:18 21:34:24 33° 70° (ENE) 21:38:31 145.935
BRITE-PL 25 May 21:32:09 21:36:03 21° 272° (W) 21:40:00 437.365/2234.400
GOMX 1 25 May 21:41:41 21:45:58 26° 269° (W) 21:50:19 467.674
AAUSAT CUBESAT 2 25 May 21:42:04 21:46:08 49° 261° (W) 21:50:12 437.432
STRAND 1 25 May 21:58:47 22:01:03 13° 301° (WNW) 22:03:03 437.568
50 SAT 25 May 21:59:01 22:01:34 17° 66° (ENE) 22:04:14 437.505
CUBEBUG 2 25 May 22:01:27 22:06:13 77° 258° (WSW) 22:11:00 437.445
ZACube-1 25 May 22:09:36 22:14:13 85° 76° (ENE) 22:18:51 437.345
AIST 2 25 May 22:09:57 22:10:41 10° 329° (NNW) 22:11:16 435.215
UKube-1 25 May 22:15:00 22:19:08 46° 71° (ENE) 22:23:19 .
HUMSAT D 25 May 22:16:01 22:20:09 46° 73° (ENE) 22:24:18 437.325/437.525
DELFI C3 25 May 22:19:02 22:23:00 55° 260° (W) 22:26:59 145.870
DX 1 25 May 22:21:27 22:25:43 59° 73° (ENE) 22:30:02 434.975-435.025
CANX-2 25 May 22:24:01 22:24:45 10° 273° (W) 22:25:13 2200.000
Oscar 11 25 May 22:26:17 22:30:19 36° 264° (W) 22:34:18 145.826/435.025
CUTE 1.7 + AOD 2 25 May 22:27:43 22:28:31 10° 273° (W) 22:29:03 437.475
ESTCUBE 1 25 May 22:28:18 22:31:38 21° 66° (ENE) 22:35:04 437.505/2401.250
VELOX 1 25 May 22:30:16 22:34:18 36° 70° (ENE) 22:38:25 145.980
CUBEBUG 1 25 May 22:33:36 22:36:46 21° 66° (ENE) 22:40:05 437.445
CINEMA 3 25 May 22:38:31 22:42:13 20° 270° (W) 22:45:50 145.822/145.860
AIST 1 25 May 22:41:03 22:43:15 13° 294° (WNW) 22:45:16
